Location: Godiavel Galaoual
(15.2485°N, 12.6604°W)
Time: 02:28:23
(UTC+00:00)

N. Korean satellite - Pass Details

Date: 10 December 2021
Orbit: 447 x 491 km, 97.3° (Epoch: 22 January)

Event Time Altitude Azimuth Distance (km) Brightness Sun altitude
Rises 05:12:49 0° 32° (NNE) 2,444 10.3 -26.4°
Reaches altitude 10° 05:15:12 10° 50° (NE) 1,577 9.5 -25.9°
Maximum altitude 05:17:45 20° 99° (E) 1,106 9.1 -25.3°
Drops below altitude 10° 05:20:19 10° 148° (SSE) 1,590 9.8 -24.7°
Sets 05:22:44 0° 166° (SSE) 2,472 10.6 -24.1°
